Tracking 29768 objects as of 3-Oct-2024
HD Live streaming from Space Station
objects crossing your sky now

GALILEO 22 (2C8)

Track GALILEO 22 (2C8) now!
GALILEO 22 (2C8) is classified as:


NORAD ID: 43058
Int'l Code: 2017-079D
Perigee: 23,214.6 km
Apogee: 23,244.1 km
Inclination: 55.3 °
Period: 844.7 minutes
Semi major axis: 29600 km
RCS: Unknown
Launch date: December 12, 2017
Source: European Space Agency (ESA)
Launch site: FRENCH GUIANA (FRGUI)
Your satellite tracking list
Your tracking list is empty




NASA's NSSDC Master Catalog

Two Line Element Set (TLE):
1 43058U 17079D   24273.27745772 -.00000011  00000-0  00000-0 0  9996
2 43058  55.2993 238.7277 0004978 277.1795  82.7229  1.70474011 42345
Source of the keplerian elements: AFSPC